This demonstration page uses our WeatherBlox Daily Observations layout. Learn more.

Left ArrowRight Arrow

41.55636, -103.73856

Hourly Observations for April 3, 2020

Temp ( °F °C ) Dew Point ( °F °C ) Humidity (%) Winds ( mph kmh ) Pressure ( in mb ) Visibility ( mi km ) Precip ( " mm )
7:58 pm 19:58 Mostly Clear 13 -10.4 8 -13.1 81 81 N 10 17 30.34 1027 10 16 0.00 0.00
8:58 pm 20:58 Mostly Cloudy 13 -10.6 8 -13.2 81 81 N 9 15 30.39 1029 10 16 0.00 0.00
9:58 pm 21:58 Mostly Clear 11 -11.6 6 -14.7 78 78 N 10 17 30.40 1030 10 16 0.00 0.00
10:58 pm 22:58 Clear 8 -13.3 3 -15.9 81 81 Calm 30.39 1029 10 16 0.00 0.00
11:58 pm 23:58 Clear 5 -15.1 1 -17.3 83 83 W 3 6 30.42 1030 10 16 0.00 0.00
12:58 am 00:58 Clear 4 -15.7 1 -17.5 86 86 W 7 11 30.45 1031 10 16 0.00 0.00
1:58 am 01:58 Clear 3 -15.9 -1 -18.2 83 83 W 6 9 30.45 1031 10 16 0.00 0.00
2:58 am 02:58 Clear 4 -15.8 0 -17.7 85 85 SSW 5 7 30.42 1030 10 16 0.00 0.00
3:58 am 03:58 Clear 2 -16.9 -2 -19 84 84 SW 5 7 30.44 1031 10 16 0.00 0.00
4:58 am 04:58 Clear 2 -16.7 -2 -18.7 85 85 WSW 6 9 30.44 1031 10 16 0.00 0.00
5:58 am 05:58 Clear 3 -16.2 -1 -18.3 84 84 Calm 30.43 1030 10 16 0.00 0.00
6:58 am 06:58 Sunny 3 -16.1 -1 -18.2 84 84 Calm 30.44 1031 10 16 0.00 0.00
7:58 am 07:58 Sunny 6 -14.7 1 -17 83 83 Calm 30.45 1031 10 16 0.00 0.00
8:58 am 08:58 Sunny 16 -9 11 -11.6 82 82 W 3 6 30.41 1030 10 16 0.00 0.00
9:58 am 09:58 Sunny 20 -6.6 11 -11.5 68 68 WNW 5 7 30.40 1030 10 16 0.00 0.00
10:58 am 10:58 Sunny 24 -4.4 15 -9.3 69 69 Calm 30.40 1030 10 16 0.00 0.00
11:58 am 11:58 Sunny 28 -2 20 -6.7 71 71 S 3 6 30.37 1028 10 16 0.00 0.00
12:58 pm 12:58 Sunny 32 0 18 -8 55 55 Calm 30.34 1027 10 16 0.00 0.00
1:58 pm 13:58 Sunny 37 2.7 15 -9.7 40 40 SSW 5 7 30.28 1025 10 16 0.00 0.00
2:58 pm 14:58 Mostly Sunny 40 4.4 13 -10.3 34 34 S 5 7 30.25 1024 10 16 0.00 0.00
3:58 pm 15:58 Mostly Sunny 40 4.7 11 -11.9 29 29 S 10 17 30.23 1024 10 16 0.00 0.00
4:58 pm 16:58 Mostly Cloudy 41 5 10 -12.3 28 28 SE 10 17 30.20 1023 10 16 0.00 0.00
5:58 pm 17:58 Mostly Cloudy 41 5.1 11 -11.6 29 29 SE 17 28 30.19 1022 10 16 0.00 0.00

Powered by AerisWeather